TimeEDT,TemperatureF,Dew PointF,Humidity,Sea Level PressureIn,VisibilityMPH,Wind Direction,Wind SpeedMPH,Gust SpeedMPH,PrecipitationIn,Events,Conditions,WindDirDegrees,DateUTC
12:56 AM,62.1,60.1,93,30.20,7.0,North,6.9,-,N/A,,Overcast,360,2013-10-14 04:56:00
1:45 AM,62.1,60.1,93,30.22,7.0,Variable,4.6,-,0.01,,Overcast,0,2013-10-14 05:45:00
1:56 AM,62.1,60.1,93,30.20,5.0,Variable,5.8,-,0.01,,Overcast,0,2013-10-14 05:56:00
2:14 AM,62.1,60.1,93,30.22,10.0,North,-9999.0,-,N/A,,Overcast,0,2013-10-14 06:14:00
2:56 AM,62.1,60.1,93,30.20,8.0,Variable,4.6,-,0.00,Rain,Light Rain,0,2013-10-14 06:56:00
3:15 AM,62.1,60.1,93,30.21,3.0,Variable,4.6,-,0.00,Rain,Light Rain,0,2013-10-14 07:15:00
3:46 AM,62.1,60.1,93,30.20,4.0,North,5.8,-,0.01,,Overcast,360,2013-10-14 07:46:00
3:56 AM,62.1,60.1,93,30.19,4.0,North,5.8,-,0.01,,Overcast,360,2013-10-14 07:56:00
4:37 AM,62.1,60.1,93,30.22,7.0,NNE,5.8,-,N/A,,Overcast,20,2013-10-14 08:37:00
4:56 AM,62.1,60.1,93,30.21,4.0,NNE,6.9,-,0.00,Rain,Light Rain,20,2013-10-14 08:56:00
5:03 AM,62.1,60.1,93,30.22,6.0,Variable,5.8,-,0.00,Rain,Light Rain,0,2013-10-14 09:03:00
5:15 AM,62.1,60.1,93,30.22,3.0,North,4.6,-,0.01,Rain,Light Rain,10,2013-10-14 09:15:00
5:56 AM,62.1,60.1,93,30.21,2.5,Variable,6.9,-,0.03,Rain,Light Rain,0,2013-10-14 09:56:00
6:08 AM,62.1,60.1,93,30.22,7.0,NNE,8.1,-,0.00,Rain,Light Rain,20,2013-10-14 10:08:00
6:15 AM,62.1,60.1,93,30.22,7.0,Variable,6.9,-,0.01,Rain,Light Rain,0,2013-10-14 10:15:00
6:56 AM,61.0,59.0,93,30.21,10.0,North,9.2,-,0.01,,Overcast,10,2013-10-14 10:56:00
7:56 AM,61.0,59.0,93,30.22,10.0,NNE,10.4,-,N/A,,Overcast,20,2013-10-14 11:56:00
8:56 AM,61.0,59.0,93,30.25,3.0,Variable,6.9,-,0.00,,Overcast,0,2013-10-14 12:56:00
9:35 AM,61.0,59.0,93,30.26,3.0,NNE,5.8,-,N/A,,Overcast,20,2013-10-14 13:35:00
9:56 AM,61.0,60.1,97,30.25,6.0,NNE,8.1,-,N/A,,Overcast,30,2013-10-14 13:56:00
10:13 AM,61.0,60.1,97,30.26,6.0,NNE,8.1,-,N/A,,Overcast,20,2013-10-14 14:13:00
10:56 AM,62.1,60.1,93,30.25,6.0,NNE,9.2,-,N/A,,Overcast,30,2013-10-14 14:56:00
11:12 AM,62.1,59.0,90,30.26,7.0,NE,5.8,-,N/A,,Overcast,40,2013-10-14 15:12:00
11:40 AM,62.1,60.1,93,30.25,10.0,Variable,6.9,-,N/A,,Overcast,0,2013-10-14 15:40:00
11:56 AM,63.0,60.1,90,30.24,10.0,North,6.9,-,N/A,,Overcast,10,2013-10-14 15:56:00
12:56 PM,63.0,60.1,90,30.23,10.0,NNE,6.9,-,N/A,,Overcast,20,2013-10-14 16:56:00
1:44 PM,64.9,60.1,84,30.22,10.0,NNE,6.9,-,N/A,,Overcast,20,2013-10-14 17:44:00
1:56 PM,64.9,60.1,84,30.21,10.0,Variable,5.8,-,N/A,,Overcast,0,2013-10-14 17:56:00
2:56 PM,64.0,59.0,84,30.20,10.0,North,10.4,18.4,N/A,,Overcast,10,2013-10-14 18:56:00
3:10 PM,64.9,59.0,81,30.21,10.0,North,6.9,-,N/A,,Overcast,360,2013-10-14 19:10:00
3:56 PM,64.9,59.0,81,30.19,10.0,NNE,5.8,-,N/A,,Overcast,20,2013-10-14 19:56:00
4:25 PM,64.0,59.0,84,30.20,10.0,North,5.8,-,N/A,,Overcast,350,2013-10-14 20:25:00
4:45 PM,64.0,59.0,84,30.20,10.0,NNE,6.9,-,N/A,,Overcast,20,2013-10-14 20:45:00
4:56 PM,64.0,59.0,84,30.19,10.0,NNE,5.8,-,N/A,,Overcast,20,2013-10-14 20:56:00
5:56 PM,63.0,59.0,87,30.20,10.0,NNE,6.9,-,N/A,,Overcast,30,2013-10-14 21:56:00
6:18 PM,63.0,57.9,84,30.22,10.0,NE,10.4,-,N/A,,Overcast,40,2013-10-14 22:18:00
6:56 PM,62.1,57.0,84,30.21,10.0,NNE,8.1,-,N/A,,Overcast,30,2013-10-14 22:56:00
7:16 PM,61.0,57.0,87,30.21,10.0,North,3.5,-,N/A,,Scattered Clouds,10,2013-10-14 23:16:00
7:56 PM,60.1,57.0,90,30.21,10.0,North,4.6,-,N/A,,Scattered Clouds,350,2013-10-14 23:56:00
8:53 PM,60.8,55.4,82,30.22,10.0,Variable,5.8,-,N/A,,Overcast,0,2013-10-15 00:53:00
8:56 PM,60.1,55.9,86,30.22,10.0,Variable,5.8,-,N/A,,Overcast,0,2013-10-15 00:56:00
9:49 PM,59.0,55.9,90,30.23,10.0,NNW,3.5,-,N/A,,Scattered Clouds,340,2013-10-15 01:49:00
9:56 PM,59.0,55.9,90,30.22,10.0,Calm,Calm,-,N/A,,Partly Cloudy,0,2013-10-15 01:56:00
10:56 PM,57.9,55.0,90,30.22,10.0,NNW,3.5,-,N/A,,Clear,330,2013-10-15 02:56:00
11:56 PM,57.0,55.0,93,30.22,10.0,Variable,3.5,-,N/A,,Clear,0,2013-10-15 03:56:00